Location: ??????????
(41.7233°N, 44.3074°E)
Time: 14:35:32
(UTC+00:00)

Daily predictions for brighter satellites

Satellite Brightness Start Highest point End
(mag) Time Altitude Azimuth Time Altitude Azimuth Time Altitude Azimuth
Feng Yun 1-1 Rocket 4.4 17:04:08 10° SSE 17:09:49 81° ENE 17:15:41 10° NNW
NOSS 2-3 (E) 3.1 17:06:22 10° SW 17:10:08 89° SSE 17:13:50 10° NE
SL-08 R/B 3.8 17:05:57 10° NNE 17:10:12 37° E 17:14:25 10° SSE
USA 59 Rocket 1.6 17:10:30 10° SE 17:12:09 12° ESE 17:13:39 10° E
CZ-4B DEB 4.2 17:07:04 10° SSE 17:12:33 83° ENE 17:18:02 10° NNW
PAYLOAD B 4.3 17:07:42 10° SSE 17:13:16 76° ENE 17:18:53 10° N
Cosmos 1758 3.4 17:13:34 10° N 17:17:12 52° E 17:20:50 10° SSE
Spot 2 Rocket 4.1 17:13:23 10° SE 17:18:08 41° ENE 17:22:53 10° N
Helios 1A Rocket 2.7 17:15:40 10° NNE 17:18:38 39° E 17:21:35 10° S
ERS-1 Rocket 3.0 17:13:43 10° SSE 17:18:43 89° WSW 17:23:45 10° NNW
Cosmos 1538 Rocket 4.4 17:14:33 10° S 17:19:23 42° ESE 17:24:18 10° NNE
SL-14 R/B 3.2 17:16:11 10° S 17:19:53 86° W 17:23:38 10° N
CZ-4B R/B 3.2 17:14:39 10° SSE 17:20:01 70° ENE 17:25:19 10° N
Cosmos 1500 Rocket 4.4 17:16:43 10° N 17:20:37 33° ENE 17:24:30 10° SE
Cosmos 2298 Rocket 4.5 17:15:57 10° NNW 17:21:11 63° WSW 17:26:22 10° S
Cosmos 1833 Rocket 3.7 17:17:22 10° N 17:22:29 34° ENE 17:27:35 10° ESE
Cosmos 1607 4.1 17:16:26 10° NNW 17:22:53 86° NE 17:29:21 10° SSE
In-Cosmos 22 4.3 17:18:20 10° S 17:24:05 83° E 17:29:50 10° NNE
Cosmos 1603 4.2 17:18:49 10° NNW 17:24:26 60° WSW 17:29:59 10° S
Terra 1.9 17:20:40 10° SSE 17:25:22 86° WSW 17:30:06 10° NNW
Okean O Rocket 2.3 17:24:04 10° SE 17:28:07 40° ENE 17:32:13 10° N
Meteor 2-11 Rocket 4.5 17:22:09 10° N 17:28:14 69° E 17:34:16 10° SSE
NOSS 3-2 (C) 3.4 17:23:33 10° SW 17:28:25 71° NW 17:34:13 10° NNE
Cosmos 1703 3.9 17:26:24 10° SSE 17:29:05 26° E 17:31:46 10° NNE
Cosmos 1553 Rocket 4.3 17:24:38 10° SSE 17:30:44 52° E 17:36:47 10° NNE
IRS-1A Rocket 4.4 17:25:26 10° SSE 17:31:17 75° ENE 17:37:03 10° N
BREEZE-M R/B 4.3 17:25:45 10° WNW 17:33:40 81° NNE 17:39:21 10° ESE
USA 276 2.5 17:37:17 10° S 17:38:53 20° SE 17:40:40 10° E
DEBRIS 4.5 17:36:54 10° WNW 17:41:08 79° SSW 17:56:02 12° SE
HBTSS-SV1 4.5 17:37:37 10° W 17:41:55 62° S 17:45:50 12° ESE
Cosmos 1151 Rocket 3.0 17:38:52 10° S 17:43:10 82° E 17:47:31 10° N
USA 238 DEB 3.9 17:39:05 10° S 17:44:32 38° ESE 17:50:25 10° NE
USA 238 3.9 17:39:20 10° S 17:44:46 37° ESE 17:50:37 10° NE
Cosmos 2082 Rocket 4.4 17:42:34 10° NNE 17:44:47 12° NE 17:46:58 10° ENE
Cosmos 2278 Rocket 3.4 17:43:31 12° SSE 17:47:14 22° E 17:51:31 10° NE
BREEZE-M DEB (TANK) 4.2 17:45:33 10° NW 17:47:17 18° N 17:48:49 10° ENE
GP-B 4.2 17:45:24 10° NNE 17:49:11 28° E 17:51:50 16° SE
Cosmos 1953 3.4 17:48:17 10° NNE 17:51:15 24° ENE 17:53:05 16° ESE
Sich 1 3.9 17:50:23 10° NNW 17:54:31 47° W 17:58:36 10° SSW
Cosmos 1408 Rocket 3.6 17:54:16 10° N 17:58:42 84° W 18:02:48 12° S
Cosmos 1943 Rocket 2.7 17:54:23 10° S 17:59:33 38° ESE 18:04:42 10° NE
SPOT 3 Rocket 4.0 17:56:16 16° SE 18:00:07 47° ENE 18:05:03 10° N
Cosmos 1805 Rocket 3.6 17:55:55 10° N 18:00:17 81° W 18:04:18 12° S
Cosmos 1745 Rocket 4.4 18:02:16 10° N 18:08:23 50° ENE 18:12:50 19° SSE
SL-8 R/B 3.9 18:05:27 10° SW 18:09:56 44° SE 18:14:25 10° ENE
Cosmos 1743 Rocket 3.5 18:09:25 10° N 18:13:47 82° E 18:16:48 20° S
Lacrosse 5 rocket 3.9 18:13:11 10° W 18:15:57 20° NNW 18:18:42 10° NNE
YAOGAN 11 4.4 18:15:00 10° N 18:19:23 69° WNW 18:23:40 10° SSW
Cosmos 1386 Rocket 4.5 18:13:21 10° N 18:19:44 80° E 18:24:30 18° SSE
Meteor 1-22 Rocket 4.0 18:16:09 10° N 18:21:26 78° E 18:25:02 21° SSE
Cosmos 2344 3.5 18:13:33 10° SSW 18:21:52 79° ESE 18:29:02 10° NE
ATLAS 5 CENTAUR R/B 3.3 18:18:57 10° SW 18:23:02 88° NW 18:37:50 10° NE
USA 245 2.5 18:22:43 36° SSE 18:23:45 67° ENE 18:26:24 10° N
Cosmos 1680 Rocket 3.7 18:20:56 18° S 18:24:36 50° ESE 18:29:37 10° NNE
Cosmos 1417 Rocket 4.5 18:23:21 13° S 18:28:56 79° E 18:35:17 10° N
Okean 2 4.1 18:32:55 29° ESE 18:33:36 31° E 18:37:01 10° NNE
Meteor 1-23 Rocket 4.3 18:30:26 23° SSE 18:33:50 55° E 18:39:16 10° NNE
Okean-O 3.8 18:31:47 13° SSW 18:35:20 37° W 18:39:24 10° NNW
Cosmos 1633 Rocket 3.3 18:31:32 10° N 18:35:51 54° E 18:37:37 32° SE
Cosmos 2056 Rocket 4.1 18:31:23 10° N 18:36:13 41° ENE 18:38:39 25° ESE
NOSS 2-1 (E) 3.1 18:37:12 10° SSW 18:41:34 63° ESE 18:44:57 10° NE
USA 186 3.1 18:41:27 17° WSW 18:41:43 18° W 18:43:16 10° NW
Milstar 3 Cent rocket 4.0 18:42:04 10° SSW 18:42:28 10° SSW 18:42:28 10° SSW
Cosmos 1400 Rocket 4.3 18:41:09 10° NNE 18:43:48 19° ENE 18:44:17 18° E
Iridium 45 4.3 18:42:51 38° SSW 18:43:50 67° W 18:46:55 10° N
Cosmos 1420 Rocket 3.9 18:42:28 10° NNW 18:47:40 82° WSW 18:50:13 31° SSE
Meteor 1-15 Rocket 4.2 18:43:58 10° N 18:49:45 88° W 18:52:51 28° S
Ariane Rocket 3.1 18:51:55 28° S 18:54:36 72° WSW 18:59:41 10° NNW
Cosmos 2315 Rocket 3.9 18:52:04 22° S 18:56:17 86° E 19:02:31 10° N
IRS-1C Rocket 4.2 18:53:31 28° S 18:56:21 72° WSW 19:01:37 10° NNW
BREEZE-M R/B 4.3 18:54:17 10° W 18:58:15 54° NNW 19:05:58 10° ENE
USA 59 Rocket 0.6 18:56:49 10° SW 19:00:32 43° NW 19:03:33 10° NNE
Iridium 4 Rocket 4.2 18:58:14 15° SSW 19:02:15 46° W 19:06:52 10° N
Okean O Rocket 3.8 19:01:23 10° SW 19:04:26 19° W 19:07:31 10° NW
CZ-4B R/B 3.7 19:02:55 28° SSW 19:04:27 42° W 19:08:17 10° NNW
NOSS 2-1 (D) 3.9 19:01:22 10° SW 19:05:17 49° NW 19:08:25 10° NNE
Cosmos 1833 Rocket 3.8 19:01:16 10° NW 19:06:21 36° WSW 19:09:26 21° SSW
CZ-4B R/B 3.9 19:07:11 29° SSW 19:09:40 58° W 19:14:49 10° NNW
USA 276 3.4 19:09:23 10° W 19:11:26 29° NNW 19:13:45 10° NE
Cosmos 2112 Rocket 4.2 19:11:35 20° SSW 19:15:12 69° WNW 19:20:24 10° NNE
Cosmos 1470 Rocket 3.5 19:12:04 10° N 19:16:31 82° W 19:17:41 49° S
Helios 1B rocket 4.1 19:17:08 16° ENE 19:17:15 16° ENE 19:19:26 10° NNE
Okean 3 3.3 19:23:29 61° ESE 19:23:40 62° E 19:27:39 10° NNE
Cosmos 1933 Rocket 3.9 19:19:39 10° N 19:23:51 49° E 19:24:24 46° ESE
NOSS 2-1 (C) 4.4 19:21:09 10° WSW 19:24:53 37° NW 19:27:54 10° NNE
Cosmos 1953 4.3 19:23:29 10° NW 19:25:57 18° W 19:27:17 15° WSW
Cosmos 1441 Rocket 3.5 19:27:47 44° NE 19:27:47 44° NE 19:30:14 10° NNE
Cosmos 1371 Rocket 4.0 19:23:13 10° NNW 19:28:26 72° WSW 19:29:57 46° S
Cosmos 2082 Rocket 2.3 19:24:20 10° NNW 19:29:56 69° ENE 19:31:46 43° SE
SWAS 4.3 19:29:56 51° SW 19:30:52 75° WNW 19:34:55 10° NNE
Cosmos 2278 Rocket 2.9 19:25:22 10° SW 19:30:52 52° WNW 19:36:24 10° NNE
CZ-2C R/B 3.7 19:34:15 28° WNW 19:34:15 28° WNW 19:36:05 10° NNW
Cosmos 2184 Rocket 4.3 19:27:33 10° N 19:33:44 54° ENE 19:35:53 38° SE
Timation 2 Rocket 4.0 19:30:21 22° SSW 19:34:36 82° WNW 19:41:12 10° NNE
Cosmos 2154 Rocket 4.4 19:28:51 10° N 19:34:52 50° ENE 19:36:55 37° SE
Cosmos 614 Rocket 4.1 19:38:33 48° SE 19:39:03 50° ESE 19:43:56 10° NNE
Cosmos 1943 Rocket 3.8 19:38:15 10° WSW 19:43:17 32° WNW 19:48:19 10° N
Cosmos 1174 4.0 19:42:59 48° WSW 19:43:49 62° WNW 19:47:20 10° NNE
TIMED 4.4 19:44:12 65° SW 19:44:46 80° WNW 19:49:02 10° NNE
Helios 1A 2.7 19:40:52 10° NNE 19:44:50 90° N 19:44:58 83° SSW
SL-4 R/B 3.9 19:49:23 15° NE 19:49:23 15° NE 19:49:59 10° NE
USA 308 4.4 19:49:05 18° NE 19:49:05 18° NE 19:50:22 10° NE
Cosmos 1331 Rocket 4.0 19:42:54 10° NNW 19:48:03 70° ENE 19:49:09 53° SE
ARIANE 5 R/B 3.5 19:50:27 35° E 19:51:00 36° ENE 19:55:03 10° N
SL-8 R/B 4.3 19:47:33 10° W 19:52:11 54° NNW 19:56:51 10° ENE
ARGOS Delta rocket 3.8 19:50:14 10° NNE 19:55:27 81° E 19:56:21 61° S
Cosmos 1869 Rocket 3.3 19:51:48 10° N 19:56:08 82° E 19:56:19 79° SE
CZ-2C R/B 3.8 19:52:14 10° NNE 19:56:54 61° E 19:57:10 60° ESE
CZ-2C R/B 4.3 19:53:29 10° NE 19:57:47 25° E 19:57:54 25° E
ALOS 2 3.2 20:06:36 44° E 20:06:55 45° ENE 20:11:07 10° N
USA 81 4.3 20:02:14 10° NNW 20:07:25 61° W 20:08:36 48° SW
Cosmos 1733 Rocket 3.7 20:04:07 10° N 20:08:12 41° ENE 20:08:13 41° ENE
Cosmos 1707 Rocket 4.3 20:08:51 39° E 20:08:51 39° E 20:12:40 10° NNE
Cosmos 2369 Rocket 2.5 20:08:55 44° ESE 20:09:10 45° ESE 20:14:29 10° NE
Cosmos 2228 Rocket 4.4 20:11:18 28° E 20:11:18 28° E 20:14:43 10° NNE
COSMOS 2406 3.3 20:06:14 10° NNW 20:11:55 69° ENE 20:13:17 50° SE
Cosmos 2297 4.2 20:12:56 42° ESE 20:13:13 42° ESE 20:18:34 10° NE
USA 215 3.7 20:12:58 19° ESE 20:17:37 59° NE 20:24:00 10° NW
Cosmos 1400 Rocket 4.4 20:16:05 10° NW 20:18:44 24° W 20:18:44 24° W
Cosmos 1862 Rocket 3.8 20:20:22 57° ENE 20:20:22 57° ENE 20:24:16 10° NNE
Cosmos 1656 Rocket 3.9 20:18:20 39° SW 20:20:16 64° WNW 20:25:48 10° NNE
Cosmos 972 Rocket 4.2 20:15:58 10° N 20:21:22 61° ENE 20:22:12 53° ESE
ARIANE 6 FM1 Upper Stage 2.8 20:22:12 67° WNW 20:22:19 67° NW 20:26:27 10° NNE
Cosmos 1315 Rocket 4.0 20:25:44 10° N 20:28:46 33° ENE 20:28:46 33° ENE
NOSS 3-1 (A) 4.0 20:31:14 30° E 20:31:14 30° E 20:34:48 10° NE
Cosmos 2074 Rocket 4.4 20:26:18 10° NNW 20:32:17 52° W 20:33:59 41° SW
Cosmos 1302 Rocket 4.0 20:27:33 10° NNW 20:32:51 73° ENE 20:33:36 62° SE
NOSS 3-1 (C) 2.8 20:34:30 64° WSW 20:35:09 77° NW 20:40:31 10° NNE
Okean 1-7 3.0 20:35:56 76° N 20:35:56 76° N 20:39:52 10° N
Spot 4 3.8 20:38:57 67° SW 20:39:12 69° WSW 20:44:02 10° NNW
Cosmos 2366 rocket 4.5 20:34:14 10° N 20:40:24 51° ENE 20:42:10 40° ESE
PSLV R/B 3.6 20:36:52 10° N 20:41:33 79° WNW 20:41:46 76° WSW
Cosmos 2327 Rocket 4.4 20:37:15 10° N 20:43:21 76° E 20:44:42 56° SSE
Exosat Rocket 4.3 20:44:59 39° SW 20:47:13 65° WNW 20:54:58 10° NNE
IRIDIUM 106 4.2 20:42:26 10° N 20:47:42 81° E 20:48:14 71° SSE
Helios 1B rocket 3.9 20:51:01 24° WNW 20:51:01 24° WNW 20:52:58 10° NW
Cosmos 1818 3.4 20:49:51 70° SSE 20:50:14 73° ESE 20:55:40 10° NE
Nadezhda 1 Rocket 4.5 20:51:27 38° SW 20:53:22 51° WNW 20:59:27 10° N
COSMOS 2455 2.8 20:55:29 59° SSE 20:56:14 64° ESE 21:02:11 10° NE
Lacrosse 4 Rocket 2.4 20:52:39 10° NNW 20:56:35 37° NE 20:57:01 36° ENE
ATLAS 5 CENTAUR R/B 3.2 20:58:21 18° NW 20:58:21 18° NW 21:00:29 10° N
Cosmos 962 Rocket 4.5 20:53:53 10° N 21:00:16 83° W 21:01:45 56° S
Meteor 1-24 Rocket 3.8 20:59:01 57° SSW 21:00:18 80° W 21:06:22 10° N
Cosmos 2218 Rocket 4.1 20:54:42 10° N 21:01:00 67° E 21:02:36 49° SE
GEOS 3 Rocket 4.1 20:59:58 36° ESE 21:01:59 59° NE 21:07:17 10° NNW
Cosmos 1992 Rocket 3.9 20:57:04 10° NNW 21:02:17 75° ENE 21:02:55 65° SE
Cosmos 1140 Rocket 4.3 21:03:36 35° E 21:03:36 35° E 21:08:10 10° NE
Cosmos 2263 4.1 21:04:20 62° SSW 21:05:19 85° WNW 21:11:04 10° NNE
ACS3 Solar Sail 1.7 21:06:47 10° NNE 21:12:27 61° E 21:13:26 53° SE
Cosmos 2082 Rocket 4.0 21:10:00 10° WNW 21:13:20 16° W 21:13:35 16° WSW
MetOp-A 3.8 21:15:10 56° NNW 21:15:10 56° NNW 21:18:13 10° NNW
Meteor 2-5 Rocket 4.0 21:21:58 49° SW 21:23:14 60° WNW 21:29:04 10° N
Cosmos 1869 4.1 21:20:43 10° N 21:23:05 41° N 21:23:05 41° N
SL-4 R/B 4.1 21:22:40 14° NW 21:24:21 19° NNW 21:26:44 10° NNE
SJ 16-02 3.4 21:26:00 17° E 21:26:00 17° E 21:28:28 10° ENE
ARIANE 5 R/B 4.4 21:27:49 20° W 21:27:49 20° W 21:30:43 10° NW
SL-8 Rocket 4.1 21:22:22 10° NNW 21:28:25 63° W 21:29:41 52° SW
Cosmos 921 Rocket 3.9 21:33:54 38° E 21:33:54 38° E 21:37:24 10° NNE
Cosmos 1300 Rocket 3.6 21:30:01 10° N 21:34:16 65° ENE 21:34:16 65° ENE
CZ-2C R/B 2.6 21:34:59 59° SW 21:35:24 61° W 21:40:37 10° NNW
Cosmos 1023 Rocket 4.2 21:36:10 73° SSE 21:36:34 78° ESE 21:41:38 10° NNE
CZ-2C R/B 3.9 21:32:46 10° N 21:37:41 39° WNW 21:38:52 34° W
Cosmos 1833 4.1 21:36:59 10° NNW 21:42:40 80° WSW 21:43:42 61° S
IDEFIX/ARIANE 42P 4.3 21:38:55 10° NE 21:42:42 20° E 21:44:10 18° ESE
Cosmos 2341 Rocket 4.3 21:36:46 10° NNW 21:42:45 51° W 21:44:01 44° SW
BREEZE-M DEB (TANK) 3.0 21:34:33 10° WNW 21:42:53 64° NNE 21:44:28 32° E
Cosmos 1703 Rocket 4.1 21:49:16 46° W 21:49:16 46° W 21:53:31 10° N
Cosmos 2369 Rocket 3.7 21:50:39 19° W 21:53:21 28° NW 21:58:07 10° N
Cosmos 2297 Rocket 4.5 21:49:21 10° N 21:53:34 21° NE 21:57:45 10° E
Geosat 3.8 21:48:33 10° NNE 21:53:35 78° ESE 21:54:13 66° S
Landsat 5 3.8 21:53:04 10° N 21:56:17 50° NW 21:56:17 50° NW
USA 215 3.5 22:00:16 42° SW 22:00:44 43° SW 22:06:54 10° WNW
Meteor 2-8 Rocket 4.4 21:54:51 10° NNW 22:01:01 75° W 22:02:38 51° SSW
Cosmos 1269 Rocket 3.9 22:01:19 61° SW 22:02:15 80° WNW 22:07:34 10° NNE
Cosmos 2239 Rocket 4.4 21:59:10 10° N 22:05:22 88° W 22:07:15 48° S
Cosmos 1932 4.5 21:59:58 10° NNW 22:06:29 82° ENE 22:09:59 29° SE
In-Cosmos 22 Rocket 4.2 22:08:41 52° SW 22:09:53 67° WNW 22:15:30 10° N
Cosmos 2242 Rocket 4.1 22:10:21 45° ESE 22:10:55 48° E 22:15:10 10° NNE
Cosmos 540 Rocket 4.1 22:07:57 10° N 22:12:56 52° ENE 22:15:22 28° SE
Cosmos 1934 Rocket 4.3 22:08:10 10° N 22:14:27 65° E 22:17:31 32° SSE
NOSS 3-1 (A) 4.3 22:18:34 21° W 22:20:53 32° NW 22:25:53 10° NNE
USA 32 4.0 22:15:39 10° N 22:20:54 84° E 22:22:18 50° SSE
Cosmos 1339 Rocket 4.4 22:21:13 46° SSW 22:23:08 80° W 22:29:15 10° N
Cosmos 407 Rocket 3.3 22:24:23 56° SSW 22:25:29 89° ESE 22:30:38 10° NNE
Nadezhda 3 Rocket 4.2 22:24:15 41° SW 22:26:14 59° W 22:32:26 10° N
Cosmos 1346 Rocket 2.7 22:27:05 64° NW 22:27:05 64° NW 22:30:26 10° N
Cosmos 2360 4.2 22:31:10 46° S 22:32:54 75° ESE 22:38:37 10° NNE
DELTA 2 DEB (DPAF) 4.3 22:30:36 10° N 22:33:46 41° WNW 22:33:46 41° WNW
Lacrosse 4 Rocket 3.4 22:31:00 10° WNW 22:32:24 16° WNW 22:32:24 16° WNW
Cosmos 1025 Rocket 3.7 22:38:11 36° SE 22:39:24 47° E 22:43:35 10° NNE
ADEOS Rocket 3.0 22:33:59 10° NNE 22:39:59 67° ESE 22:42:20 36° S
Cosmos 304 Rocket 4.3 22:40:42 38° WSW 22:41:49 46° WNW 22:46:25 10° N
Cosmos 1190 Rocket 4.3 22:44:34 37° SSE 22:46:26 59° ESE 22:51:33 10° NNE
Cosmos 1656 3.7 22:46:54 41° SW 22:48:48 70° WNW 22:54:20 10° NNE
Cosmos 371 Rocket 4.0 22:52:11 33° WSW 22:53:36 42° WNW 22:58:11 10° N
ACS3 Solar Sail 3.4 22:50:09 10° NNW 22:54:10 20° WNW 22:56:47 15° W
Gbstr 26 Del rocket 4.1 22:53:18 35° SW 22:56:20 74° SE 23:03:52 10° ENE
Cosmos 1763 Rocket 3.6 22:54:34 10° NNW 22:59:27 52° WSW 23:00:45 41° SSW
BREEZE-M DEB (TANK) 4.4 22:57:50 31° S 23:00:01 45° SE 23:13:55 10° ENE
ATLAS 3B R/B 3.5 22:56:02 25° S 23:00:16 48° ESE 23:07:43 10° NE
Cosmos 1697 Rocket 3.3 22:57:44 27° SSE 23:00:26 47° ESE 23:05:47 10° NE
Cosmos 2292 Rocket 4.5 22:59:44 22° ESE 23:00:49 27° E 23:03:53 10° NNE
MOS 1-B Rocket 3.8 22:55:08 10° NNE 23:01:03 82° ESE 23:03:47 32° S
SJ 16-02 2.0 23:02:28 34° W 23:03:27 40° WNW 23:07:28 10° N
Cosmos 2227 Rocket 4.0 23:03:09 10° N 23:08:08 31° NE 23:13:05 10° ESE
Lacrosse 5 rocket 3.4 23:06:32 10° NNW 23:09:23 24° NNE 23:12:10 10° E
NOSS 2-2 (D) 3.8 23:05:38 10° NNW 23:09:31 72° NE 23:14:54 10° SE
Cosmos 1605 Rocket 3.9 23:05:28 10° N 23:11:44 81° W 23:15:40 24° S
CZ-2D R/B 3.7 23:07:43 10° NE 23:12:25 29° E 23:16:58 10° SSE
NOSS 2-2 (C) 4.0 23:11:53 10° NW 23:15:50 47° WSW 23:18:34 25° S
SL-8 R/B 4.3 23:13:18 10° WNW 23:18:00 57° NNE 23:22:41 10° E
CENTAUR R/B 3.6 23:09:52 10° NNW 23:18:22 74° NE 23:27:55 10° SE
Cosmos 2251 Rocket 3.6 23:18:39 32° SW 23:21:10 67° WNW 23:26:31 10° NNE
IDEFIX/ARIANE 42P 3.0 23:17:22 10° N 23:22:25 51° WNW 23:24:51 28° SW
Cosmos 405 Rocket 3.5 23:24:33 24° WNW 23:24:33 24° WNW 23:26:58 10° NNW
Cosmos 1455 Rocket 4.0 23:22:11 10° N 23:26:22 45° ENE 23:30:32 10° SSE
FENGYUN 3A 3.8 23:21:45 10° N 23:27:03 62° WNW 23:29:53 27° SW
Cosmos 1862 4.4 23:27:41 16° SSE 23:29:58 33° E 23:33:13 10° NNE
Cosmos 676 Rocket 3.9 23:29:00 27° SSW 23:31:54 90° WNW 23:37:07 10° NNE
MSX 4.4 23:27:11 10° N 23:32:37 44° WNW 23:35:48 23° SW
H-2A R/B 3.1 23:27:49 10° NNE 23:32:41 40° E 23:37:10 11° SSE
Cosmos 2228 4.3 23:32:52 10° N 23:36:50 39° ENE 23:40:48 10° SSE
Cosmos 2297 Rocket 2.2 23:32:28 10° NNW 23:38:05 65° WSW 23:43:40 10° S
ADEOS II 3.3 23:33:50 10° NNE 23:38:38 36° E 23:43:23 10° SSE
Cosmos 468 Rocket 4.2 23:34:32 10° NNW 23:39:25 47° WSW 23:42:29 21° SSW
Cosmos 1782 2.8 23:36:32 10° N 23:40:01 63° E 23:42:45 15° SSE
Cosmos 292 Rocket 3.7 23:38:09 24° SSW 23:40:59 82° ESE 23:45:44 10° NNE
Meteor 2-16 Rocket 4.4 23:36:26 19° S 23:41:01 88° E 23:47:08 10° N
Delta 2 Rocket 4.1 23:42:15 19° SSE 23:42:15 19° SSE 23:43:42 10° ESE
Cosmos 2084 Rocket 4.4 23:39:29 21° W 23:41:33 35° NW 23:45:19 10° NNE
COSMOS 2441 4.4 23:37:08 10° N 23:42:00 71° WNW 23:45:01 23° SSW
Cosmos 1437 Rocket 3.6 23:38:54 10° N 23:42:10 41° ENE 23:45:23 10° SSE
USA 229 DEB 3.5 23:38:40 23° SW 23:42:29 73° NW 23:49:06 10° NNE
USA 229 3.5 23:38:42 23° SW 23:42:31 74° NW 23:49:08 10° NNE
NPP 4.2 23:38:00 10° N 23:43:08 45° WNW 23:46:18 22° SW
Meteor 2-21 Rocket 4.5 23:42:01 20° SSW 23:46:28 73° W 23:52:42 10° N
Cosmos 1980 Rocket 2.8 23:43:01 15° S 23:47:34 51° ESE 23:53:05 10° NE
USA 276 1.9 23:48:14 10° WNW 23:51:11 83° NNE 23:54:14 10° ESE
Okean 2 Rocket 3.6 23:48:45 10° NNW 23:52:49 39° W 23:55:04 22° SSW
Meteor 1-27 4.2 23:48:04 10° NNW 23:53:50 79° W 23:59:39 10° S
Cosmos 2058 3.3 23:51:08 13° S 23:54:24 55° E 23:58:13 10° NNE
